This demonstration page uses our WeatherBlox Daily Observations layout. Learn more.

Hourly Observations for December 12, 2017

Temp ( °F °C ) Dew Point ( °F °C ) Humidity (%) Winds ( mph kmh ) Pressure ( in mb ) Visibility ( mi km ) Precip ( " mm )
12:54 am 00:54 Clear 27 -2.8 21 -6.1 78 78 NNW 14 22 30.4 1029 10 16.0934 0 0
1:54 am 01:54 Clear 25 -3.9 18 -7.8 75 75 NNW 12 19 30.42 1030 10 16.0934 0 0
2:54 am 02:54 Clear 23 -5 14 -10 68 68 NNW 6 9 30.43 1030 10 16.0934 0 0
3:54 am 03:54 Clear 22 -5.6 14 -10 71 71 W 3 6 30.42 1030 10 16.0934 0 0
4:54 am 04:54 Clear 21 -6.1 15 -9.4 78 78 WNW 6 9 30.41 1030 10 16.0934 0 0
5:54 am 05:54 Clear 20 -6.7 15 -9.4 81 81 W 5 7 30.4 1029 10 16.0934 0 0
6:54 am 06:54 Clear 20 -6.7 15 -9.4 81 81 WNW 5 7 30.39 1029 10 16.0934 0 0
7:54 am 07:54 Sunny 19 -7.2 14 -10 81 81 Calm 30.39 1029 10 16.0934 0 0
8:54 am 08:54 Mostly Cloudy 22 -5.6 18 -7.8 85 85 Calm 30.38 1029 10 16.0934 0 0
9:54 am 09:54 Cloudy 27 -2.8 22 -5.6 81 81 WSW 5 7 30.36 1028 10 16.0934 0 0
10:54 am 10:54 Cloudy 31 -0.6 24 -4.4 76 76 SSW 6 9 30.34 1027 10 16.0934 0 0
11:54 am 11:54 Cloudy 37 2.8 27 -2.8 67 67 SW 6 9 30.29 1026 10 16.0934 0 0
12:54 pm 12:54 Mostly Cloudy 43 6.1 29 -1.7 58 58 WSW 5 7 30.24 1024 10 16.0934 0 0
1:54 pm 13:54 Sunny 47 8.3 27 -2.8 46 46 W 12 19 30.17 1022 10 16.0934 0 0
2:54 pm 14:54 Sunny 48 8.9 27 -2.8 44 44 WSW 13 20 30.14 1021 10 16.0934 0 0
3:54 pm 15:54 Sunny 48 8.9 27 -2.8 44 44 W 12 19 30.11 1020 10 16.0934 0 0
4:54 pm 16:54 Sunny 45 7.2 25 -3.9 46 46 SSW 3 6 30.08 1019 10 16.0934 0 0
5:54 pm 17:54 Clear 38 3.3 24 -4.4 57 57 S 5 7 30.05 1018 10 16.0934 0 0
6:54 pm 18:54 Clear 39 3.9 24 -4.4 55 55 SSW 6 9 30.02 1017 10 16.0934 0 0
7:54 pm 19:54 Clear 35 1.7 24 -4.4 64 64 SSE 8 13 29.99 1016 10 16.0934 0 0
8:54 pm 20:54 Clear 34 1.1 23 -5 64 64 S 6 9 29.97 1015 10 16.0934 0 0
9:54 pm 21:54 Clear 35 1.7 24 -4.4 64 64 S 6 9 29.91 1013 10 16.0934 0 0
10:54 pm 22:54 Clear 34 1.1 24 -4.4 67 67 SSE 5 7 29.86 1011 10 16.0934 0 0
11:54 pm 23:54 Clear 35 1.7 24 -4.4 64 64 S 5 7 29.82 1010 10 16.0934 0 0

Powered by AerisWeather